Regional Weather Roundup
Issued by NWS

Home | Current Version | Previous Version | Text Only | Print | Product List | Glossary Off
Versions: 1 2 3 4 5 6 7 8 9 10 11 12 13 14 15 16 17 18 19 20 21 22 23 24 25 26 27 28 29 30 31 32 33 34 35 36 37 38 39 40 41 42 43 44 45 46 47 48 49 50

000
ASUS43 KLOT 221408
RWRIL

ILLINOIS REGIONAL WEATHER ROUNDUP
NATIONAL WEATHER SERVICE CHICAGO/ROMEOVILLE IL
800 AM CST MON JAN 22 2018

NOTE: "FAIR" INDICATES FEW OR NO CLOUDS BELOW 12,000 FEET WITH NO
SIGNIFICANT WEATHER AND/OR OBSTRUCTIONS TO VISIBILITY.

* THESE STATIONS ARE NOT UNDER NWS QUALITY CONTROL. THEY ALSO MAY NOT
  REPORT WEATHER SUCH AS PRECIPITATION OR FOG.

ILZ001-002-007-009-015-016-024-221500-
NORTHWEST ILLINOIS

CITY           SKY/WX    TMP DP  RH WIND       PRES   REMARKS
MOLINE         FOG       49  48  97 NE7       29.49F VSB 1/4
STERLING*        N/A    N/A N/A N/A MISG        N/A
SAVANNA*       CLOUDY    39  39  99 NW5       29.55R
$$

ILZ003-004-008-010-011-017-018-221500-
NORTH CENTRAL ILLINOIS

CITY           SKY/WX    TMP DP  RH WIND       PRES   REMARKS
ROCKFORD       LGT RAIN  41  41 100 E20       29.52F
FREEPORT*      CLOUDY    40  40 100 E8G24     29.49F
ROCHELLE*      CLOUDY    45  45 100 E9        29.54R FOG
DE KALB*       CLOUDY    47  47 100 SE15      29.56S FOG
PERU*          CLOUDY    48  47  97 SW9       29.55R
$$

ILZ005-006-012>014-019>023-221500-
NORTHEAST ILLINOIS

CITY           SKY/WX    TMP DP  RH WIND       PRES   REMARKS
CHICAGO-OHARE  LGT RAIN  49  47  93 SE17      29.56F
CHICAGO-MIDWAY CLOUDY    50  50 100 S13       29.58F
AURORA         CLOUDY    48  47  96 SE15      29.56S
LANSING*       CLOUDY    49  49 100 S20G25    29.60F
JOLIET*        CLOUDY    50  50  99 S12G21    29.58R
WAUKEGAN       LGT RAIN  41  41 100 E7        29.57F VSB 3/4
DUPAGE AIRPORT CLOUDY    49  49 100 SE14      29.55F
KANKAKEE*      CLOUDY   N/A N/A N/A S21G26    29.62R
WHEELING       LGT RAIN  48  48 100 E10       29.57F FOG
MORRIS*        CLOUDY    48  48  98 S16       29.55R
ROMEOVILLE*    CLOUDY    48  48 100 S14G21    29.58R
NORTHERLY ISL    N/A     40  39  97 E6          N/A
$$

LMZ740>746-221500-
SOUTHERN LAKE MICHIGAN

STATION/POSITION SKY/WX   TEMP    WIND        PRES    VSBY  WAVE
                          AIR SEA DIR/SP/G                  HT/PER
                          (F)     (DEG/KT/KT) (MB)    (MI)  (FT/S)
HARRISON CRIB              45     100/ 21/ 23   N/A
BURNHAM HARBOR             40     160/  3/ 13   N/A
CALUMET HARBOR             49     150/ 11/ 16 1000.9F
BURNS HARBOR               51     170/ 11/ 22 1003.7F
MICHIGAN CITY              50     150/ 15/ 18   N/A
$$

ILZ025>027-034>036-040-047-049-050-058-095>099-221500-
WEST-CENTRAL ILLINOIS

CITY           SKY/WX    TMP DP  RH WIND       PRES   REMARKS
QUINCY         PTCLDY    52  51  97 S14       29.50R
GALESBURG*     FAIR      50  50 100 S15       29.51S
MACOMB*        CLOUDY    50  50 100 SE14G20   29.52F FOG
JACKSONVILLE*  CLOUDY    52  51  95 S16       29.55S
PITTSFIELD*    CLOUDY    53  52  97 S12       29.55S
$$

ILZ028>032-037-038-041>044-048-051>054-059>061-221500-
CENTRAL ILLINOIS

CITY           SKY/WX    TMP DP  RH WIND       PRES   REMARKS
PONTIAC        MOCLDY    49  49  98 S17       29.59S
BLOOMINGTON    CLOUDY    49  48  97 S22       29.58S
DECATUR        MOCLDY    51  51 100 S21G26    29.61S
PEORIA         CLOUDY    51  51 100 S12       29.55S FOG
LACON*         CLOUDY    50  50 100 S10       29.53S
LINCOLN*       CLOUDY    52  52 100 S15G21    29.58R
SPRINGFIELD    CLOUDY    53  52  96 S20G29    29.57R
TAYLORVILLE    CLOUDY    51  51  97 S18G25    29.60R
$$

ILZ033-039-045-046-055>057-062-063-221500-
EAST-CENTRAL ILLINOIS

CITY           SKY/WX    TMP DP  RH WIND       PRES   REMARKS
CHAMPAIGN      MOCLDY    49  48  97 SE20G28   29.63S
DANVILLE*      CLOUDY    49  48  97 S18G24    29.65R
RANTOUL*       FAIR      50  49  98 S17G24    29.64R
MATTOON        MOCLDY    49  48  97 S20G32    29.64F
PARIS*         MOCLDY    50  48  93 S26G32    29.72R
$$

ILZ079-100>102-221500-
SOUTHWEST ILLINOIS

CITY           SKY/WX    TMP DP  RH WIND       PRES   REMARKS
ALTON          CLOUDY    52  52 100 S14       29.60F
BELLEVILLE     CLOUDY    54  51  92 S15       29.60F
CAHOKIA*       CLOUDY    54  52  93 S9G21     29.60S
SPARTA*        CLOUDY    54  54 100 S14G21    29.65F
$$

ILZ064>066-069>071-074>076-080>082-084>086-088>090-092>094-221500-
SOUTH-CENTRAL ILLINOIS

CITY           SKY/WX    TMP DP  RH WIND       PRES   REMARKS
CARBONDALE     CLOUDY    53  53 100 S15G25    29.68F
CAIRO*         DRIZZLE   52  51  97 S15G22    29.73F
EFFINGHAM*     CLOUDY    51  51 100 SE16G24   29.69F
MARION         CLOUDY    52  52 100 S21G29    29.71R
MT. VERNON     CLOUDY    53  51  93 S15G22    29.69F
CENTRALIA*     CLOUDY    54  53  96 S20G25    29.65F
SALEM*         CLOUDY    55  51  89 S15G24    29.66F
METROPOLIS*    CLOUDY    53  51  92 S12G22    29.77F
$$

ILZ067-068-072-073-078-083-087-091-221500-
SOUTHEAST ILLINOIS

CITY           SKY/WX    TMP DP  RH WIND       PRES   REMARKS
LAWRENCEVILLE  RAIN      50  49  96 S17       29.77F FOG
FLORA*         CLOUDY    52  51  95 S18G24    29.70F
FAIRFIELD*     CLOUDY    51  51 100 S14       29.71S
HARRISBURG*    RAIN      53  51  93 S18G26    29.74F
ROBINSON*      LGT RAIN  49  48  99 S17       29.74F
CARMI*         DRIZZLE   51  49  93 S15       29.76S
$$

ABBREVIATIONS USED IN REMARKS
   TC - TEMPERATURE IN CELSIUS
  WCI - WIND CHILL INDEX
   HX - HEAT INDEX
  VSB - VISIBILITY
$$





USA.gov is the U.S. government's official web portal to all federal, state and local government web resources and services.